Weather Service Report


865 
ASUS45 KPSR 252110
RWRAZ 

ARIZONA HOURLY REGIONAL WEATHER ROUNDUP
NATIONAL WEATHER SERVICE PHOENIX AZ
200 PM MST SUN SEP 25 2016

NOTE: FAIR INDICATES FEW OR NO CLOUDS BELOW 12,000 FEET WITH NO
SIGNIFICANT WEATHER AND/OR OBSTRUCTIONS TO VISIBILITY.

AZZ001>003-036-252200-
NORTHWEST ARIZONA
  
CITY           SKY/WX    TMP DP  RH WIND       PRES   REMARKS
BULLHEAD CITY  SUNNY     90  32  12 N32G44    30.01F                  
KINGMAN        SUNNY     83  30  14 N23G29    30.18F                  
$$

AZZ004>008-015-016-018-252200-
NORTH CENTRAL ARIZONA
  
CITY           SKY/WX    TMP DP  RH WIND       PRES   REMARKS
GRAND CANYON   SUNNY     64  31  28 NE22G30   30.39F                  
PRESCOTT       SUNNY     73  34  23 NE9       30.23F                  
FLAGSTAFF      SUNNY     64  33  31 NE15G24   30.35F                  
PAYSON         SUNNY     75  27  16 VRB5G13   30.23F                  
PAGE           SUNNY     74  27  17 E10       30.31F                  
$$

AZZ009>014-017-252200-
NORTHEAST ARIZONA
  
CITY           SKY/WX    TMP DP  RH WIND       PRES   REMARKS
WINSLOW        SUNNY     76  31  19 N9        30.25F                  
SAINT JOHNS    SUNNY     77  30  17 N9        30.23F                  
WINDOW ROCK    SUNNY     70  31  23 NE13G22   30.36S                  
SHOW LOW       SUNNY     66  27  22 N13       30.29F                  
$$

AZZ023-252200-
GREATER PHOENIX AREA
  
CITY           SKY/WX    TMP DP  RH WIND       PRES   REMARKS
PHOENIX        MOSUNNY   94  32  11 VRB6      29.92F                  
BUCKEYE        SUNNY     91  32  12 E3        29.95F                  
GLENDALE       SUNNY     93  30  10 CALM      29.95F                  
LUKE AFB       SUNNY     93  31  11 VRB6      29.93F                  
DEER VALLEY    SUNNY     93  31  11 SE7       29.95F                  
SCOTTSDALE     SUNNY     92  29  10 VRB3      29.96F                  
MESA-FALCON    MOSUNNY  N/A N/A N/A E8G17     29.92F                  
MESA-GATEWAY   MOSUNNY   91  32  12 E6        29.94F                  
CHANDLER       SUNNY     93  30  10 VRB5      29.94F                  
$$

AZZ027-028-252200-
SOUTHWEST MARICOPA COUNTY AND PINAL COUNTY
  
CITY           SKY/WX    TMP DP  RH WIND       PRES   REMARKS
CASA GRANDE    SUNNY     93  34  12 E12       29.96F                  
GILA BEND      FAIR      92  30  11 NE14      29.91F                  
$$

AZZ503-504-507>509-252200-
SOUTHEAST ARIZONA
  
CITY           SKY/WX    TMP DP  RH WIND       PRES   REMARKS
TUCSON         SUNNY     89  32  13 E15       30.01F                  
DAVIS-MONTHAN  MOSUNNY   87  33  14 SE10      30.00F                  
RYAN FIELD     SUNNY     90  32  12 E13G20    29.99F                  
NOGALES        PTSUNNY   81  37  20 E13G20    30.06F                  
SIERRA VISTA   PTSUNNY   78  34  20 SE9       30.13F                  
DOUGLAS        MOSUNNY   84  36  18 E18G25    30.08F                  
SAFFORD        SUNNY     87  34  15 SE12G24   30.04F                  
$$

AZZ020-021-025-026-031-252200-
SOUTHWEST ARIZONA
  
CITY           SKY/WX    TMP DP  RH WIND       PRES   REMARKS
YUMA           SUNNY     95  34  11 N14       29.91F                  
$$

CAZ031-033-041-043-047-048-061-252200-
SOUTHERN CALIFORNIA
  
CITY           SKY/WX    TMP DP  RH WIND       PRES   REMARKS
DOWNTOWN L.A.  SUNNY     92  41  17 W5        29.93F                  
L.A. AIRPORT   SUNNY     82  57  42 W13       29.94F                  
SAN DIEGO      SUNNY     89  44  20 W12       29.92F                  
BURBANK        SUNNY     99  23   6 S9        29.95F                  
ONTARIO        SUNNY     97  17   5 N20G33    29.96F                  
RIVERSIDE      SUNNY     97  21   6 N15G26    29.95F                  
PALM SPRINGS   SUNNY     95  28   9 MISG      30.01F                  
EL CENTRO NAS  LGT RAIN  96  29   9 NE16G23   29.95F                  
IMPERIAL       SUNNY     97  37  12 N17G24    29.92F                  
BLYTHE         SUNNY     95  33  11 NE18G26   29.96F                  
NEEDLES        SUNNY     93  32  11 N29G37    30.02F                  
$$

NVZ020-UTZ003-252200-
SOUTHERN NEVADA-UTAH
  
CITY           SKY/WX    TMP DP  RH WIND       PRES   REMARKS
LAS VEGAS      SUNNY     86  25  11 NE17G24   30.18F                  
SALT LAKE CITY SUNNY     67  44  43 N13       30.43F                  
$$

NMZ009-TXZ055-252200-
NEW MEXICO-WEST TEXAS
  
CITY           SKY/WX    TMP DP  RH WIND       PRES   REMARKS
ALBUQUERQUE    MOSUNNY   73  34  23 SE17G23   30.30S                  
EL PASO        PTSUNNY   75  38  26 E18       30.14F                  
$$


........................KEY........................
SKY/WX - SKY CONDITION/WEATHER
TMP    - TEMPERATURE IN FAHRENHEIT
DP     - DEW POINT IN FAHRENHEIT
RH     - RELATIVE HUMIDITY IN PERCENT
WIND   - DIRECTION AND SPEED IN MILES PER HOUR (MPH)
VRB    - VARIABLE WIND DIRECTION
PRES   - MEAN SEA LEVEL PRESSURE IN INCHES OF MERCURY
         F - FALLING PRESSURE   R - RISING PRESSURE
         S - STEADY PRESSURE
VSB    - VISIBILITY IN MILES
HX     - HEAT INDEX IN FAHRENHEIT
WCI    - WIND CHILL INDEX IN FAHRENHEIT
TC     - TEMPERATURE IN CELSIUS WHICH IS ALSO KNOWN AS
         TEMPERATURE IN CENTIGRADE
AFB    - AIR FORCE BASE
         LUKE AFB IS LUKE AIR FORCE BASE
         DAVIS-MONTHAN IS DAVIS-MONTHAN AIR FORCE BASE
NAS    - NAVAL AIR STATION
         EL CENTRO NAS IS EL CENTRO NAVAL AIR STATION
N/A    - NOT AVAILABLE

  

Return to Home page


Western Regional Climate Center, wrcc@dri.edu